Wind_Speed
43 41 39 40 39 34 32 30 28 30 32 31 27 25 25 25 22 16 12 11 13 13
40 40 39 37 37 35 33 34 33 32 30 28 27 26 26 22 18 16 19 18 16 16
40 39 39 39 38 37 37 37 33 32 31 29 26 21 18 22 22 21 19 18 18 16
35 36 37 38 38 40 41 38 36 35 32 28 25 23 23 23 23 21 19 16 16 15
36 36 42 44 44 43 45 42 39 34 32 27 27 25 24 23 20 19 18 16 13 12
37 40 39 48 50 50 45 40 39 35 30 29 27 25 22 21 19 17 15 12 11 9
40 44 47 43 47 49 44 39 35 33 30 28 25 23 21 20 18 16 14 11 9 7
46 50 48 46 44 45 42 36 33 32 29 26 23 21 20 18 16 14 13 10 8 7
42 45 49 48 46 43 38 34 33 31 29 26 22 17 16 15 14 12 10 8 6 5
45 44 45 47 43 38 36 34 31 29 26 25 21 17 16 14 12 11 9 7 5 3
42 43 38 38 40 37 34 30 28 27 25 24 19 16 14 12 11 9 8 6 5 4
38 37 39 38 36 34 32 29 27 24 23 22 18 14 12 11 9 8 7 5 4 6
34 33 35 36 35 32 30 29 26 23 20 20 17 12 10 9 8 7 6 5 3 3
34 37 36 34 32 31 29 29 26 24 19 18 15 13 12 9 8 6 4 2 2 4
Wind_Direction
189 183 181 180 178 172 165 161 156 150 143 137 138 136 135 128 120 120 127 135 130 121
183 182 177 174 171 166 160 153 151 147 142 139 136 130 122 119 129 137 136 131 126 111
178 180 175 170 161 157 153 149 147 140 133 126 121 120 129 127 133 134 133 128 119 107
162 162 155 147 142 144 145 143 139 133 129 126 125 128 132 134 136 135 126 119 114 106
143 141 139 136 137 141 137 137 135 132 127 128 131 137 140 137 137 130 127 121 117 113
126 128 125 128 133 136 134 135 132 125 135 137 138 144 139 135 134 128 122 121 118 114
117 120 122 121 128 129 131 129 129 136 134 139 140 138 136 135 131 129 124 118 108 99
118 120 120 123 127 126 124 132 136 135 139 134 136 140 138 135 131 128 121 105 99 83
113 116 123 126 126 125 131 136 141 137 135 135 134 135 133 133 132 121 111 111 102 86
118 116 120 126 127 131 139 142 138 136 134 127 125 131 133 128 120 118 115 108 97 70
115 116 121 128 134 139 137 137 136 131 129 123 120 125 121 123 121 112 103 84 66 54
120 124 133 131 132 133 135 134 130 131 131 122 115 118 121 123 122 112 90 64 53 29
126 124 128 130 133 136 132 130 135 130 124 119 113 112 128 131 124 102 85 67 66 65
131 133 134 133 135 136 135 137 133 122 119 119 114 101 89 88 80 80 84 84 8 350
Height
733 740 748 755 764 773 779 789 796 800 805 808 814 816 819 821 825 832 836 840 844 847
730 735 743 752 761 770 779 786 796 803 808 812 817 821 820 825 830 834 839 843 847 848
725 733 740 749 757 768 777 786 799 805 811 817 821 825 829 828 836 839 843 844 846 849
726 733 740 748 759 768 778 788 801 808 814 818 823 826 834 837 839 844 846 848 848 850
727 737 742 749 758 773 782 792 802 809 816 821 824 832 837 839 844 846 847 848 850 852
733 741 750 754 764 776 787 798 802 810 819 823 828 835 838 841 845 847 849 851 853 855
739 748 755 766 771 777 790 804 810 813 821 827 832 836 840 844 846 848 849 852 854 857
744 752 759 773 782 788 795 806 817 818 826 828 835 840 841 844 847 850 852 853 856 858
752 759 767 778 790 792 803 813 820 822 824 828 837 842 844 846 849 851 852 855 857 857
761 766 774 784 791 801 811 817 822 825 828 831 837 844 846 847 851 852 854 855 855 856
768 775 785 793 797 808 814 823 828 829 834 837 841 845 846 850 851 853 854 855 855 856
779 784 792 797 803 810 820 827 831 836 840 841 842 845 848 850 853 853 853 855 856 856
788 793 799 803 810 816 823 829 839 842 842 840 844 846 848 849 851 852 854 855 855 856
797 799 805 810 815 822 830 836 839 839 842 843 845 848 850 852 853 852 853 854 853 853